Location: Unspecified
(0.0000°N, 0.0000°E)
Time: 00:16:39
(UTC+02:00)

SWIFT - Visible Passes

Search period start: 29 August 2015 00:00
Search period end: 08 September 2015 00:00
Orbit: 552 x 569 km, 20.6° (Epoch: 26 August)

Date Brightness Start Highest point End Pass type
(mag) Time Alt. Az. Time Alt. Az. Time Alt. Az.
29 Aug 2.3 07:03:36 23° WSW 07:06:11 76° NNW 07:10:29 10° ENE visible
29 Aug 4.5 20:43:42 10° WSW 20:46:36 18° SSW 20:49:29 10° SSE visible
30 Aug 2.7 07:00:23 25° W 07:02:35 51° NNW 07:06:47 10° NE visible
30 Aug 4.8 20:40:59 10° SW 20:43:07 13° SSW 20:45:11 10° SSE visible
31 Aug 3.3 06:57:09 24° WNW 06:59:00 36° NNW 07:02:58 10° NE visible
31 Aug 5.0 20:39:11 10° SSW 20:39:40 10° SSW 20:40:03 10° S visible
01 Sep 3.8 06:53:53 21° NW 06:55:27 26° NNW 06:59:03 10° NE visible
02 Sep 4.1 06:50:37 17° NW 06:51:55 19° NNW 06:54:59 10° NNE visible
03 Sep 4.5 06:47:19 13° NW 06:48:24 14° NNW 06:50:45 10° NNE visible
04 Sep 4.7 06:43:59 10° NNW 06:44:55 11° NNW 06:46:04 10° N visible
